Home   Weather   Muttenz   Past weeks

Flag for Switzerland Past Weather in Muttenz, Basel-Land, Switzerland — Yesterday and Last 2 Weeks

Now
68 °F

Broken clouds.


Feels Like: 68 °F
Forecast: 48 / 67 °F
Wind: 2 mph from Northwest

Location: Bale-Mulhouse

Current Time: Sep 25, 2016 at 7:28:29 PM

Latest Report: Sep 25, 2016 at 7:00 PM


Visibility: N/A

Pressure: 30.09 "Hg

Humidity: 64%

Dew Point: 55 °F

Location of MuttenzLocation

Past Weather in Muttenz — Graph

°F

Muttenz Temperature Yesterday

Maximum temperature yesterday: 73 °F (at 4:00 PM)
Minimum temperature yesterday: 41 °F (at 7:30 AM)
Average temperature yesterday: 56 °F

High & Low Weather Summary for the Past Weeks

 TemperatureHumidityPressure
High88 °F (Sep 12, 3:00 PM)100% (Sep 11, 3:30 AM)30.33 "Hg (Sep 11, 3:30 AM)
Low41 °F (Sep 24, 7:30 AM)35% (Sep 13, 4:00 PM)29.77 "Hg (Sep 15, 3:00 AM)
Average62 °F79%30.05 "Hg
* Reported Sep 10 6:00 PM — Sep 25 6:00 PM, Muttenz, Weather by CustomWeather, © 2016

Note: Actual official high and low records may vary slightly from our data, if they occured in-between our weather recording intervals... More about our weather records

Advertising

Muttenz Weather History for the Previous 24 Hours

Scroll right to see more
 ConditionsComfort  
Time TempWeatherWind HumidityBarometerVisibility
6:00 PM
Sun, Sep 25
73 °FScattered clouds.7 mph53%30.09 "HgN/A
5:30 PM75 °FScattered clouds.7 mph47%30.09 "HgN/A
5:00 PM77 °FScattered clouds.5 mph42%30.09 "HgN/A
4:30 PM77 °FPassing clouds.1 mph42%30.09 "HgN/A
4:00 PM77 °FPassing clouds.3 mph39%30.09 "HgN/A
3:30 PM77 °FPassing clouds.2 mph44%30.09 "HgN/A
3:12 PM77 °FPassing clouds.2 mph44%30.09 "HgN/A
2:30 PM75 °FPassing clouds.3 mph50%30.09 "HgN/A
2:00 PM75 °FPassing clouds.3 mph50%30.09 "HgN/A
1:30 PM73 °FPassing clouds.3 mph53%30.12 "HgN/A
1:00 PM72 °FPassing clouds.3 mph53%30.12 "HgN/A
12:30 PM72 °FPassing clouds.3 mph61%30.12 "HgN/A
12:00 PM70 °FPassing clouds.3 mph64%30.15 "HgN/A
11:30 AM68 °FPassing clouds.6 mph64%30.15 "HgN/A
11:00 AM64 °FPassing clouds.5 mph73%30.15 "HgN/A
10:30 AM63 °FPassing clouds.6 mph77%30.15 "HgN/A
10:00 AM61 °FPassing clouds.6 mph77%30.15 "HgN/A
9:30 AM59 °FPassing clouds.7 mph88%30.15 "HgN/A
9:00 AM57 °FPassing clouds.5 mph88%30.15 "HgN/A
8:30 AM54 °FSunny.6 mph94%30.15 "Hg10 mi
8:00 AM52 °FClear.6 mph94%30.15 "Hg6 mi
7:30 AM52 °FClear.6 mph94%30.15 "Hg6 mi
7:00 AM52 °FClear.6 mph94%30.15 "Hg6 mi
6:30 AM52 °FClear.5 mph94%30.15 "Hg6 mi
6:00 AM52 °FClear.7 mph94%30.15 "Hg6 mi
5:30 AM54 °FClear.7 mph88%30.15 "Hg10 mi
5:00 AM52 °FClear.6 mph94%30.15 "Hg10 mi
4:30 AM52 °FClear.5 mph94%30.15 "Hg10 mi
4:00 AM54 °FClear.7 mph88%30.15 "Hg10 mi
3:30 AM54 °FClear.7 mph88%30.15 "Hg10 mi
3:00 AM54 °FPassing clouds.6 mph94%30.15 "HgN/A
2:30 AM54 °FClear.6 mph94%30.15 "Hg10 mi
2:00 AM54 °FClear.5 mph94%30.15 "Hg10 mi
1:30 AM54 °FPassing clouds.5 mph94%30.15 "HgN/A
1:00 AM54 °FClear.6 mph94%30.15 "Hg10 mi
12:30 AM54 °FClear.6 mph94%30.15 "Hg10 mi
12:00 AM54 °FClear.5 mph94%30.18 "Hg10 mi
11:30 PM
Sat, Sep 24
52 °FClear.2 mph94%30.18 "Hg10 mi
11:00 PM52 °FClear.2 mph94%30.18 "Hg10 mi
10:30 PM54 °FClear.2 mph94%30.18 "Hg10 mi
10:00 PM54 °FPassing clouds.3 mph94%30.18 "HgN/A
9:30 PM54 °FClear.2 mph94%30.18 "Hg10 mi
9:00 PM55 °FClear.2 mph88%30.18 "Hg10 mi
8:30 PM57 °FClear.3 mph82%30.18 "Hg10 mi
8:00 PM61 °FClear.1 mph77%30.15 "Hg10 mi
7:30 PM64 °FClear.1 mph68%30.15 "Hg10 mi
7:00 PM70 °FPassing clouds.5 mph60%30.15 "HgN/A
Weather by CustomWeather, © 2016

See weather overviewHow to use our weather pages